Find Kosmos-83

NORAD ID: 1573 Int'l Des: 1965-070 Owner: OKB10 Country: SU operational
LEOCIRCULAR

Live Position

Loading 3D Globe...

About Kosmos-83

Description loading...

Upcoming Passes

Passes for default location (London). Set your location on the main map for personalized predictions.

Altitude History

Loading altitude history...

Two-Line Element Set

1 1573U 65070D 26105.80469948 -.00000063 00000-0 22209-3 0 9994
2 1573 56.0521 149.2333 0066774 355.3935 4.6346 12.41045127747463
Epoch: Apr 15, 2026 • Age: 16 hours

Current Status

Altitude 1501.7 km
Velocity 7.12 km/s
Sub-Earth Point 54.42°N, 155.58°W
Type other

Most Searched